[[{"header":{"parameterUnit":"m.s-1","parameterCategory":1,"la1":30.2991,"la2":30.254,"lo1":-89.0895,"lo2":-89.0444,"dy":0.0017,"dx":0.0017,"nx":28,"ny":28,"refTime":"2024-04-21T03:00:00:Z","depth":0,"parameterNumber":2,"parameterNumberName":"U-component_of_WINDS"},"data":[0,0,0,0,0,0,0,0,0,0,0,0,0,0,0,0,0,0,0,0,0,0,0,0,0,0,0,0,0,0,0,0,0,0,0,0,0,0,0,0,0,0,0,0,0,0,0,0,0,0,0,0,0,0,0,0,0,0,-1.2969,-1.2969,0,-1.3019,-1.3019,-1.302,-1.3035,-1.3035,-1.3035,-1.3034,-1.3085,-1.3086,-1.3088,0,0,0,0,0,0,0,0,0,0,0,0,0,-1.2883,-1.2885,-1.2969,-1.2969,-1.297,-1.3019,-1.3019,-1.302,-1.3035,-1.3035,-1.3034,-1.3034,-1.3084,-1.3086,-1.3088,0,0,0,0,0,0,0,0,0,0,0,0,0,-1.2926,-1.2885,-1.2968,-1.2983,-1.2985,-1.3019,-1.3019,-1.302,-1.3035,-1.3035,-1.3034,-1.3034,-1.3084,-1.3086,-1.3088,-1.311,0,0,-1.3095,-1.3096,0,0,0,0,0,0,0,0,-1.2923,-1.2929,-1.298,-1.2982,-1.2984,-1.302,-1.3008,-1.3051,-1.3035,-1.3016,-1.3034,-1.3034,-1.3064,-1.3068,-1.3078,-1.3113,-1.3115,-1.3096,-1.3097,-1.3098,-1.3099,0,0,0,0,0,0,0,-1.292,-1.2927,-1.2988,-1.2981,-1.2984,-1.2987,-1.2992,-1.3016,-1.3041,-1.3018,-1.3019,-1.3025,-1.3065,-1.3075,-1.3079,-1.3116,-1.3096,-1.3098,-1.3099,-1.31,-1.317,-1.317,0,0,0,0,0,0,-1.2915,-1.2924,-1.2987,-1.299,-1.2952,-1.2988,-1.2995,-1.3009,-1.3041,-1.3046,-1.3025,-1.3025,-1.3072,-1.3076,-1.3081,-1.3108,-1.3098,-1.31,-1.3102,-1.3169,-1.317,-1.317,0,0,0,0,0,0,-1.2913,-1.292,-1.2985,-1.2957,-1.2966,-1.299,-1.3006,-1.301,-1.3021,-1.3047,-1.3051,-1.3032,-1.3071,-1.3078,-1.3103,-1.311,-1.3101,-1.3104,-1.3169,-1.317,-1.317,-1.3164,0,0,0,0,0,0,-1.2911,-1.292,-1.2929,-1.2957,-1.2967,-1.3007,-1.3007,-1.3012,-1.3025,-1.3026,-1.3054,-1.3058,-1.3072,-1.3099,-1.3105,-1.3113,-1.3105,-1.3168,-1.3169,-1.317,-1.3163,-1.3164,-1.3165,0,0,0,0,0,-1.2907,-1.2925,-1.293,-1.2937,-1.298,-1.3007,-1.3013,-1.3028,-1.3026,-1.3035,-1.3051,-1.3057,-1.3108,-1.3102,-1.3108,-1.3118,-1.3168,-1.3169,-1.317,-1.3163,-1.3164,-1.3165,0,0,0,0,0,0,-1.2897,-1.2929,-1.2934,-1.2962,-1.2982,-1.301,-1.3022,-1.3028,-1.3049,-1.3049,-1.3066,-1.3072,-1.3096,-1.3109,-1.3101,-1.314,-1.3138,-1.3141,-1.3131,-1.3132,-1.3132,-1.3129,-1.3107,0,0,0,0,0,-1.2898,-1.2919,-1.2945,-1.2967,-1.2977,-1.2997,-1.301,-1.302,-1.3041,-1.3049,-1.3067,-1.3086,-1.3107,-1.312,-1.314,-1.3165,-1.3171,-1.3174,-1.3175,-1.3175,-1.3178,-1.319,-1.3192,-1.3174,-1.3174,-1.3174,0,0,-1.2901,-1.2921,-1.2932,-1.2965,-1.2982,-1.3002,-1.3004,-1.3025,-1.304,-1.3052,-1.3077,-1.3091,-1.3113,-1.3138,-1.315,-1.315,-1.3184,-1.3177,-1.3177,-1.3179,-1.3192,-1.3193,-1.3195,-1.3174,-1.3174,-1.3174,0,0,-1.2915,-1.2932,-1.2952,-1.2968,-1.2993,-1.3006,-1.3011,-1.3037,-1.3047,-1.3072,-1.3081,-1.3098,-1.3133,-1.3149,-1.3161,-1.3179,-1.3185,-1.3185,-1.3189,-1.3201,-1.3202,-1.3204,-1.321,-1.3212,-1.3187,-1.3187,-1.3187,0,-1.2915,-1.2946,-1.2961,-1.2982,-1.2995,-1.3007,-1.3026,-1.3041,-1.3071,-1.308,-1.3079,-1.3122,-1.3138,-1.3166,-1.3171,-1.318,-1.3185,-1.3182,-1.3201,-1.3203,-1.3204,-1.321,-1.3212,-1.3186,-1.3186,-1.3187,-1.3187,0,-1.2944,-1.2965,-1.2977,-1.3006,-1.3021,-1.3041,-1.3058,-1.3072,-1.308,-1.3093,-1.3117,-1.3137,-1.3161,-1.3168,-1.3176,-1.3197,-1.3196,-1.3198,-1.3196,-1.3205,-1.3211,-1.3214,-1.3186,-1.3186,-1.3186,-1.3186,0,0,-1.2955,-1.299,-1.2995,-1.3007,-1.3034,-1.3051,-1.307,-1.3093,-1.3104,-1.3123,-1.314,-1.3168,-1.317,-1.3184,-1.3193,-1.3204,-1.3216,-1.3205,-1.3206,-1.3206,-1.3239,-1.3238,-1.324,-1.322,-1.322,-1.3221,-1.3237,0,-1.2973,-1.3009,-1.3023,-1.3052,-1.3071,-1.3081,-1.3098,-1.3115,-1.3128,-1.3145,-1.3158,-1.3178,-1.3178,-1.3187,-1.3198,-1.3212,-1.3223,-1.3211,-1.3235,-1.3235,-1.3229,-1.3243,-1.3242,-1.3257,-1.3239,-1.324,-1.324,0,-1.2999,-1.3018,-1.305,-1.3073,-1.3081,-1.3097,-1.3118,-1.3135,-1.3154,-1.3162,-1.3177,-1.3186,-1.3205,-1.3202,-1.3229,-1.322,-1.323,-1.3238,-1.3239,-1.3243,-1.3239,-1.3247,-1.3262,-1.3264,-1.3244,-1.3244,-1.3243,0,-1.3003,-1.3037,-1.306,-1.3071,-1.3099,-1.3109,-1.3121,-1.314,-1.3153,-1.3171,-1.3179,-1.32,-1.3211,-1.3226,-1.3239,-1.3236,-1.3264,-1.3262,-1.3271,-1.327,-1.3277,-1.3277,-1.3294,-1.3283,-1.3283,-1.3283,-1.3283,0,-1.3022,-1.3041,-1.3063,-1.3077,-1.3097,-1.3112,-1.3131,-1.3144,-1.3161,-1.3177,-1.3186,-1.3201,-1.3217,-1.3233,-1.3244,-1.3264,-1.3269,-1.3275,-1.3278,-1.3275,-1.3274,-1.3282,-1.3281,-1.3284,-1.3283,-1.3283,-1.3283,0,-1.3031,-1.3047,-1.3072,-1.3096,-1.3102,-1.3116,-1.3137,-1.315,-1.3162,-1.3182,-1.3187,-1.3205,-1.3225,-1.3239,-1.3265,-1.3271,-1.3293,-1.3295,-1.3286,-1.3288,-1.3295,-1.3294,-1.3319,-1.3322,-1.3309,-1.3309,-1.3309,0,-1.3043,-1.3057,-1.3082,-1.3094,-1.3106,-1.3124,-1.3137,-1.3151,-1.3163,-1.3186,-1.3196,-1.3216,-1.3233,-1.3264,-1.3279,-1.3298,-1.3301,-1.3308,-1.3304,-1.33,-1.3301,-1.33,-1.3301,-1.3309,-1.3309,-1.3309,-1.3309,0,-1.3061,-1.3067,-1.3086,-1.3106,-1.3121,-1.3138,-1.3154,-1.3163,-1.318,-1.3193,-1.3213,-1.3226,-1.3251,-1.3271,-1.3291,-1.3302,-1.3308,-1.331,-1.3313,-1.331,-1.3304,-1.3307,-1.3288,-1.3309,-1.3309,-1.3309,-1.3309,-1.3309,-1.3071,-1.3084,-1.3104,-1.3123,-1.3137,-1.3152,-1.3166,-1.3179,-1.3196,-1.3218,-1.3225,-1.3245,-1.3262,-1.329,-1.3301,-1.3317,-1.3317,-1.3321,-1.3322,-1.3323,-1.3323,-1.3301,-1.332,-1.332,-1.332,-1.332,-1.332,0,-1.309,-1.3102,-1.312,-1.3143,-1.3158,-1.3162,-1.318,-1.3192,-1.321,-1.3226,-1.3242,-1.3265,-1.3283,-1.3299,-1.3318,-1.3327,-1.333,-1.3331,-1.3331,-1.3333,-1.3322,-1.3317,-1.3328,-1.3328,-1.3328,-1.3328,-1.3328,-1.3328,-1.3101,-1.3123,-1.3131,-1.3159,-1.3172,-1.3192,-1.3202,-1.3215,-1.3228,-1.3253,-1.3268,-1.3278,-1.3294,-1.3313,-1.333,-1.3334,-1.334,-1.3341,-1.3346,-1.3335,-1.3334,-1.3333,-1.3329,-1.3342,-1.3342,-1.3356,-1.3356,-1.3356]},{"header":{"parameterUnit":"m.s-1","parameterCategory":1,"la1":30.2991,"la2":30.254,"lo1":-89.0895,"lo2":-89.0444,"dy":0.0017,"dx":0.0017,"nx":28,"ny":28,"refTime":"2024-04-21T03:00:00:Z","depth":0,"parameterNumber":3,"parameterNumberName":"V-component_of_WINDS"},"data":[0,0,0,0,0,0,0,0,0,0,0,0,0,0,0,0,0,0,0,0,0,0,0,0,0,0,0,0,0,0,0,0,0,0,0,0,0,0,0,0,0,0,0,0,0,0,0,0,0,0,0,0,0,0,0,0,0,0,-7.461,-7.4612,0,-7.4774,-7.4776,-7.4778,-7.4763,-7.476,-7.4758,-7.4756,-7.4914,-7.492,-7.4927,0,0,0,0,0,0,0,0,0,0,0,0,0,-7.4276,-7.4282,-7.461,-7.4612,-7.4614,-7.4774,-7.4776,-7.4778,-7.4763,-7.476,-7.4757,-7.4755,-7.4912,-7.4919,-7.4927,0,0,0,0,0,0,0,0,0,0,0,0,0,-7.4428,-7.4284,-7.461,-7.4626,-7.463,-7.4773,-7.4776,-7.4779,-7.4764,-7.476,-7.4757,-7.4753,-7.4909,-7.4919,-7.4928,-7.5063,0,0,-7.4958,-7.4963,0,0,0,0,0,0,0,0,-7.442,-7.4441,-7.4622,-7.4626,-7.4629,-7.4744,-7.4716,-7.4874,-7.4765,-7.4713,-7.4756,-7.4751,-7.486,-7.4873,-7.4912,-7.5071,-7.5077,-7.4959,-7.4965,-7.4969,-7.4972,0,0,0,0,0,0,0,-7.4409,-7.4433,-7.4675,-7.4625,-7.4629,-7.4623,-7.464,-7.4746,-7.4805,-7.4717,-7.4716,-7.4736,-7.4861,-7.4903,-7.4916,-7.508,-7.4959,-7.4968,-7.4974,-7.4977,-7.5356,-7.536,0,0,0,0,0,0,-7.4396,-7.4425,-7.4669,-7.468,-7.4514,-7.4632,-7.4651,-7.4711,-7.4804,-7.4814,-7.4739,-7.4735,-7.4888,-7.4904,-7.4921,-7.5085,-7.4969,-7.4978,-7.4984,-7.5352,-7.5357,-7.5362,0,0,0,0,0,0,-7.4389,-7.4418,-7.4663,-7.4552,-7.4583,-7.4642,-7.4709,-7.4716,-7.4758,-7.4821,-7.483,-7.4772,-7.4885,-7.4907,-7.5029,-7.5091,-7.4983,-7.4992,-7.5347,-7.5354,-7.5359,-7.5414,0,0,0,0,0,0,-7.4379,-7.4416,-7.447,-7.4554,-7.4589,-7.4771,-7.4713,-7.4722,-7.4776,-7.4772,-7.4854,-7.4863,-7.4884,-7.5014,-7.5038,-7.5102,-7.4999,-7.5342,-7.535,-7.5357,-7.5407,-7.5422,-7.5434,0,0,0,0,0,-7.4368,-7.4477,-7.4473,-7.4502,-7.4658,-7.4774,-7.4794,-7.4818,-7.4781,-7.4834,-7.4875,-7.4861,-7.508,-7.5027,-7.5054,-7.5121,-7.5338,-7.5348,-7.5357,-7.5401,-7.5419,-7.5434,0,0,0,0,0,0,-7.4395,-7.4488,-7.4484,-7.4624,-7.4692,-7.4772,-7.484,-7.4836,-7.4913,-7.4906,-7.493,-7.4948,-7.5071,-7.5108,-7.5047,-7.5256,-7.5203,-7.5219,-7.5228,-7.5245,-7.5258,-7.5247,-7.5007,0,0,0,0,0,-7.4418,-7.4507,-7.4582,-7.4698,-7.4733,-7.4781,-7.4832,-7.4845,-7.4915,-7.4942,-7.4991,-7.5057,-7.514,-7.5195,-7.5275,-7.5412,-7.5429,-7.5472,-7.5485,-7.5496,-7.5509,-7.5584,-7.5604,-7.5393,-7.5393,-7.5392,0,0,-7.4465,-7.4527,-7.4581,-7.4706,-7.4759,-7.4849,-7.4805,-7.4901,-7.4967,-7.4956,-7.5075,-7.5113,-7.5187,-7.5317,-7.5377,-7.5352,-7.5571,-7.5508,-7.5516,-7.5524,-7.5596,-7.5616,-7.5633,-7.5399,-7.5398,-7.5397,0,0,-7.4597,-7.4653,-7.4756,-7.4812,-7.4895,-7.4927,-7.4951,-7.5032,-7.5058,-7.5178,-7.5172,-7.5248,-7.5392,-7.5446,-7.5491,-7.5644,-7.5633,-7.5669,-7.5739,-7.5812,-7.5828,-7.5843,-7.5897,-7.5916,-7.5681,-7.5682,-7.5682,0,-7.4644,-7.4782,-7.4809,-7.4908,-7.4962,-7.4959,-7.5062,-7.5114,-7.5217,-7.5253,-7.5225,-7.5406,-7.5455,-7.5598,-7.5635,-7.5672,-7.57,-7.566,-7.5824,-7.5839,-7.5854,-7.5905,-7.5925,-7.5685,-7.5685,-7.5684,-7.5684,0,-7.4835,-7.4931,-7.5004,-7.5108,-7.517,-7.527,-7.531,-7.5369,-7.5377,-7.541,-7.5531,-7.5591,-7.5683,-7.5718,-7.5725,-7.5861,-7.5843,-7.5819,-7.5767,-7.5877,-7.5926,-7.5946,-7.5691,-7.5689,-7.5688,-7.5687,0,0,-7.4989,-7.5108,-7.5135,-7.5182,-7.5274,-7.5347,-7.5445,-7.5539,-7.5589,-7.566,-7.5742,-7.5864,-7.5843,-7.5895,-7.5908,-7.5972,-7.6088,-7.594,-7.5942,-7.5965,-7.6241,-7.6259,-7.6282,-7.6082,-7.6086,-7.6089,-7.6235,0,-7.513,-7.531,-7.5337,-7.5494,-7.5581,-7.558,-7.5666,-7.573,-7.5763,-7.584,-7.5875,-7.5962,-7.5927,-7.5959,-7.6022,-7.6061,-7.6144,-7.6051,-7.6157,-7.616,-7.6139,-7.6307,-7.6327,-7.6462,-7.6254,-7.6258,-7.626,0,-7.5319,-7.54,-7.5566,-7.5647,-7.5684,-7.5762,-7.585,-7.5924,-7.5995,-7.6015,-7.6074,-7.6079,-7.6178,-7.6122,-7.6258,-7.6194,-7.6239,-7.6264,-7.627,-7.6281,-7.6217,-7.6322,-7.6505,-7.6525,-7.629,-7.6288,-7.6286,0,-7.5415,-7.5564,-7.5683,-7.5723,-7.582,-7.5874,-7.5916,-7.5985,-7.6039,-7.6115,-7.615,-7.6235,-7.6281,-7.6345,-7.6372,-7.6329,-7.6507,-7.6452,-7.6524,-7.6524,-7.6562,-7.6559,-7.6754,-7.6591,-7.659,-7.659,-7.6589,0,-7.557,-7.5671,-7.5728,-7.5801,-7.5914,-7.5943,-7.6053,-7.6093,-7.6154,-7.6232,-7.6235,-7.6308,-7.6339,-7.6416,-7.6437,-7.6547,-7.6567,-7.6584,-7.6588,-7.6584,-7.6582,-7.6614,-7.6605,-7.6595,-7.6594,-7.6593,-7.6592,0,-7.5695,-7.5737,-7.5867,-7.5949,-7.5972,-7.6052,-7.612,-7.6189,-7.6222,-7.6322,-7.6347,-7.6397,-7.6489,-7.6522,-7.6631,-7.6645,-7.6772,-7.6769,-7.6749,-7.675,-7.682,-7.6813,-7.7043,-7.7074,-7.689,-7.6891,-7.6893,0,-7.5792,-7.5871,-7.5962,-7.6017,-7.6062,-7.6149,-7.6206,-7.6236,-7.6295,-7.6382,-7.6441,-7.6532,-7.6607,-7.6752,-7.6796,-7.688,-7.6878,-7.6953,-7.6891,-7.6884,-7.6879,-7.6874,-7.6882,-7.6964,-7.6966,-7.6968,-7.6969,0,-7.5958,-7.5975,-7.6059,-7.615,-7.6218,-7.629,-7.636,-7.6404,-7.6444,-7.6509,-7.6604,-7.6662,-7.6776,-7.6866,-7.6952,-7.6991,-7.6986,-7.6988,-7.7009,-7.7006,-7.6991,-7.7,-7.6781,-7.6983,-7.6981,-7.698,-7.698,-7.6979,-7.6072,-7.6143,-7.6218,-7.6311,-7.6367,-7.6433,-7.6503,-7.6545,-7.6626,-7.6724,-7.6735,-7.6837,-7.6905,-7.7021,-7.7064,-7.7142,-7.7121,-7.7152,-7.7159,-7.7166,-7.7172,-7.6979,-7.7157,-7.7157,-7.7157,-7.7156,-7.7156,0,-7.6239,-7.6288,-7.6373,-7.6473,-7.6545,-7.6538,-7.6614,-7.6674,-7.6765,-7.683,-7.6905,-7.7013,-7.7101,-7.7153,-7.724,-7.7292,-7.7292,-7.7313,-7.731,-7.7319,-7.7185,-7.7159,-7.7312,-7.7312,-7.7312,-7.7312,-7.7312,-7.7312,-7.6334,-7.6453,-7.6479,-7.6625,-7.6672,-7.6775,-7.6819,-7.6878,-7.6931,-7.7053,-7.7127,-7.7162,-7.7221,-7.7312,-7.7391,-7.7404,-7.7435,-7.7459,-7.747,-7.7344,-7.7328,-7.7313,-7.7288,-7.7466,-7.7466,-7.7597,-7.7598,-7.7599]}]]